Find CORAL

NORAD ID: 67684 Int'l Des: 1998-067 Owner: ROSAP Country: I operational
LEOCIRCULAR

当前视图

正在加载3D地球...

关于 CORAL

正在加载描述...

即将过境

Passes for default location (London). Set your location on the main map for personalized predictions.

高度历史

Loading altitude history...

两行轨道根数

1 67684U 98067YA 26146.08371897 .00134725 00000-0 11336-2 0 9991
2 67684 51.6257 41.4444 0012888 126.2281 233.9909 15.68816986 16885
Epoch: May 26, 2026 • Age: 16 hours

当前状态

高度 386.6 km
速度 7.67 km/s
星下点 -50.42°S, 164.01°E
发射日期 Oct 26, 2025
运行时间 0.5 years
类型 other

技术详情

分类 Payload
质量 2.00 kg
干质量 2.00 kg
总质量 2.00 kg
长度 0.20 m
直径 0.10 m
跨度 0.20 m
形状 Box
制造商 ROSAP
平台类型 Cubesat 2U
阶段状态 In Orbit
所有者/国家 ROSAP/I

Most Searched